Location: George Washington National Forest Helicopter Landing Site
(38.6463°N, 79.0851°W)
Time: 20:12:12
(UTC-04:00)

Tiros 1 despin weight - Pass Details

Date: 20 August 2019
Orbit: 594 x 642 km, 48.2° (Epoch: 17 September)

Event Time Altitude Azimuth Distance (km) Brightness Sun altitude
Rises 23:09:31 0° 182° (S) 2,812 - -30.7°
Reaches altitude 10° 23:13:19 10° 149° (SSE) 1,923 - -31.2°
Maximum altitude 23:14:46 11° 129° (SE) 1,834 - -31.4°
Drops below altitude 10° 23:16:13 10° 110° (ESE) 1,933 - -31.5°
Sets 23:20:03 0° 77° (ENE) 2,852 - -32.0°
